This is the latest recevied weather packets stored in our database for station/object KD2FGL-13. If no packets are shown the sender has not sent any weather packets the latest 10 day(s).
| Time | Temp. | Humidity | Pressure | Rain* | Wind** | Luminosity | Snow |
|---|---|---|---|---|---|---|---|
| 1777672252 | 19.44° C | 32% | 1011.7 hPa | 0 mm | - | - | - |
| 1777671948 | 19.44° C | 32% | 1011.5 hPa | 0 mm | - | - | - |
| 1777671643 | 19.44° C | 32% | 1011.5 hPa | 0 mm | - | - | - |
| 1777671035 | 19.44° C | 32% | 1011.5 hPa | 0 mm | - | - | - |
| 1777670732 | 19.44° C | 32% | 1011.7 hPa | 0 mm | - | - | - |
| 1777670427 | 19.44° C | 32% | 1011.7 hPa | 0 mm | - | - | - |
| 1777669820 | 19.44° C | 32% | 1011.7 hPa | 0 mm | - | - | - |
| 1777667997 | 18.89° C | 32% | 1011.7 hPa | 0 mm | - | - | - |
| 1777667692 | 18.89° C | 30% | 1011.8 hPa | 0 mm | - | - | - |
| 1777667087 | 18.89° C | 32% | 1011.9 hPa | 0 mm | - | - | - |
| 1777667087 | 18.89° C | 32% | 1011.9 hPa | 0 mm | - | - | - |
| 1777665869 | 18.33° C | 31% | 1011.9 hPa | 0 mm | - | - | - |
| 1777665565 | 18.33° C | 31% | 1011.8 hPa | 0 mm | - | - | - |
| 1777664956 | 18.33° C | 32% | 1011.8 hPa | 0 mm | - | - | - |
| 1777664046 | 18.33° C | 33% | 1012 hPa | 0 mm | - | - | - |
| 1777663742 | 18.33° C | 33% | 1012.2 hPa | 0 mm | - | - | - |
| 1777662526 | 18.33° C | 33% | 1012.2 hPa | 0 mm | - | - | - |
| 1777662224 | 18.33° C | 33% | 1012.4 hPa | 0 mm | - | - | - |
| 1777661694 | 18.33° C | 38% | 1012.4 hPa | 0 mm | - | - | - |
| 1777661390 | 18.33° C | 38% | 1012.5 hPa | 0 mm | - | - | - |
| 1777661087 | 17.78° C | 38% | 1012.7 hPa | 0 mm | - | - | - |
| 1777660784 | 17.78° C | 39% | 1012.7 hPa | 0 mm | - | - | - |
| 1777659870 | 17.22° C | 39% | 1012.6 hPa | 0 mm | - | - | - |
| 1777659263 | 17.22° C | 40% | 1012.8 hPa | 0 mm | - | - | - |
| 1777657440 | 16.67° C | 40% | 1013.2 hPa | 0 mm | - | - | - |
* Rain since midnight (hover to see other rain measurements)
** Current wind speed in m/s (hover to see current wind gust speed)